COSMOS 1261 DEB, 35507

Orbit data source: Space-Track

COSMOS 1261 DEB, 35507 is space debris originally from a launch on Tue, 31 Mar 1981 UTC launched from the Plesetsk Missile And Space Complex (PKMTR). Debris objects in space refer to the collection of defunct objects orbiting the Earth. Examples of debris include non-operational satellites, rocket bodies, and fragments generated from explosions, collisions, or faulty payload assembly.

Loading next visibility...
Identifier
35507, 1981-031N
Orbit
Molniya
Country
Flag of CISCIS
Related business
Manufacturer
Unknown
Mission
Spacecraft
Bus & Motor
Unknown
Mass
Unknown
Launch date (UTC)
1981-03-31 (45 years ago)
Launch vehicle
Unknown
Launch site
Plesetsk Missile And Space Complex (PKMTR)
Object type
Payload
Rocket body
Debris
Shape & HBR
Unknown shape, 0.3 m
Radar Cross Section
Medium (>0.1 m² and <1 m²)

Expand to show TLE details & history
Last TLE update: 2 days ago

TLE from 2 days ago
0 COSMOS 1261 DEB
1 35507U 81031N   26033.97211346  .00001546  00000-0  38664-2 0  9995
2 35507  62.3245 319.3028 7388504  41.6174 355.2881  2.01838527 95718
Epoch: 2026-02-02T23:19Z
TLE epoch observation values (Epoch: 2026-02-02T23:19:50.602Z)
Latitude
0.00004°
Longitude
-163.77775°
Altitude
1,356.241 km
Speed
9.382 km/s
True Right ascension
21h 17m 22s
True Declination
0° 00' 00"
Sunlit
Object was in daylight at epoch
Visualization orbit readout
Latitude
Unknown
Longitude
Unknown
Altitude
Unknown
Speed
Unknown
Apparent Right ascension
Unknown
Apparent Declination
Unknown
Sunlit
N/A
Visualization observer readout
Local Sidereal Time
03:05:22
Azimuth
Unknown
Elevation
Unknown
Doppler factor
Unknown
Orbital elements
Apogee altitude
39,610.004 km
Perigee altitude
528.601 km
Semi-major axis
26,447.44 km
Eccentricity
0.73885
Inclination
62.3245°
RAAN
319.3028°
Arg. of periapsis
41.6174°
True anomaly
317.1296°
Mean anomaly
355.2881°
Eccentric anomaly
342.69771°
Mean motion
0.50462 °/min
Orbital period
713.4 mins
BSTAR
0.0038664
Loading maneuver chart data...
Computing Atmospheric mass density...
Loading historical data...
Loading historical data...
Loading historical data...
Loading historical data...
Loading historical data...
Loading historical data...
Loading historical data...

Documentation

Showing up to 5 results
|